Hourly Weather Bolshie Klyari

Today, 18 June, Friday

Time Temperature Precipitation Wind Pressure Humidity
00:00 +14°C° 0 mm 3 mps 756 mmHg 73%
01:00 +13°C° 0 mm 4 mps 757 mmHg 75%
02:00 +12°C° 0 mm 4 mps 757 mmHg 77%
03:00 +11°C° 0 mm 4 mps 758 mmHg 79%
04:00 +12°C° 0 mm 4 mps 758 mmHg 76%
05:00 +12°C° 0 mm 4 mps 758 mmHg 73%
06:00 +13°C° 0 mm 4 mps 759 mmHg 70%
07:00 +14°C° 0 mm 5 mps 759 mmHg 65%
08:00 +15°C° 0 mm 5 mps 759 mmHg 60%
09:00 +16°C° 0 mm 5 mps 759 mmHg 55%
10:00 +17°C° 0 mm 5 mps 759 mmHg 53%
11:00 +19°C° 0 mm 5 mps 760 mmHg 50%
12:00 +20°C° 0 mm 5 mps 760 mmHg 48%
13:00 +20°C° 0 mm 4 mps 760 mmHg 48%
14:00 +20°C° 0 mm 4 mps 759 mmHg 47%
15:00 +21°C° 0 mm 3 mps 759 mmHg 46%
16:00 +20°C° 0 mm 3 mps 760 mmHg 51%
17:00 +20°C° 0 mm 2 mps 760 mmHg 56%
18:00 +21°C° 0 mm 1 mps 760 mmHg 61%
19:00 +19°C° 0 mm 1 mps 760 mmHg 63%
20:00 +18°C° 0 mm 1 mps 760 mmHg 66%
21:00 +15°C° 0 mm 1 mps 760 mmHg 69%
22:00 +14°C° 0 mm 1 mps 760 mmHg 69%
23:00 +14°C° 0 mm 1 mps 760 mmHg 70%

Tomorrow, 19 June, Saturday

Time Temperature Precipitation Wind Pressure Humidity
00:00 +14°C° 0 mm 2 mps 760 mmHg 70%
01:00 +13°C° 0 mm 2 mps 760 mmHg 71%
02:00 +13°C° 0 mm 2 mps 760 mmHg 71%
03:00 +13°C° 0 mm 2 mps 760 mmHg 72%
04:00 +13°C° 0 mm 3 mps 760 mmHg 72%
05:00 +14°C° 0 mm 3 mps 760 mmHg 72%
06:00 +15°C° 0 mm 4 mps 760 mmHg 71%
07:00 +18°C° 0 mm 4 mps 760 mmHg 68%
08:00 +19°C° 0 mm 5 mps 760 mmHg 65%
09:00 +21°C° 0 mm 5 mps 760 mmHg 61%
10:00 +22°C° 0 mm 6 mps 759 mmHg 60%
11:00 +23°C° 0 mm 6 mps 759 mmHg 59%
12:00 +24°C° 0 mm 6 mps 759 mmHg 58%
13:00 +24°C° 0 mm 6 mps 758 mmHg 58%
14:00 +26°C° 0 mm 6 mps 758 mmHg 58%
15:00 +26°C° 0 mm 6 mps 757 mmHg 58%
16:00 +26°C° 0 mm 6 mps 757 mmHg 62%
17:00 +24°C° 0 mm 6 mps 757 mmHg 66%
18:00 +25°C° 0 mm 5 mps 757 mmHg 71%
19:00 +22°C° 0 mm 5 mps 756 mmHg 76%
20:00 +21°C° 0 mm 5 mps 756 mmHg 81%
21:00 +20°C° 0 mm 5 mps 756 mmHg 87%
22:00 +19°C° 0 mm 5 mps 756 mmHg 87%
23:00 +19°C° 0 mm 5 mps 756 mmHg 88%

Day after tomorrow, 20 June, Sunday

Time Temperature Precipitation Wind Pressure Humidity
00:00 +17°C° 0 mm 5 mps 756 mmHg 89%
01:00 +17°C° 0 mm 5 mps 756 mmHg 89%
02:00 +18°C° 0 mm 4 mps 756 mmHg 90%
03:00 +17°C° 0 mm 4 mps 756 mmHg 90%
04:00 +18°C° 0 mm 4 mps 757 mmHg 87%
05:00 +19°C° 0 mm 5 mps 757 mmHg 84%
06:00 +20°C° 0 mm 5 mps 757 mmHg 81%
07:00 +22°C° 0 mm 5 mps 757 mmHg 77%
08:00 +23°C° 0 mm 5 mps 757 mmHg 72%
09:00 +26°C° 0 mm 5 mps 757 mmHg 68%
10:00 +27°C° 0 mm 5 mps 757 mmHg 65%
11:00 +28°C° 0 mm 5 mps 757 mmHg 62%
12:00 +29°C° 0 mm 5 mps 757 mmHg 59%
13:00 +29°C° 0 mm 5 mps 756 mmHg 57%
14:00 +29°C° 0 mm 5 mps 756 mmHg 55%
15:00 +30°C° 0 mm 4 mps 756 mmHg 53%
16:00 +29°C° 0 mm 4 mps 756 mmHg 58%
17:00 +28°C° 0 mm 3 mps 756 mmHg 63%
18:00 +28°C° 0 mm 3 mps 756 mmHg 68%
19:00 +26°C° 0.1 mm 3 mps 756 mmHg 73%
20:00 +25°C° 0.1 mm 2 mps 756 mmHg 77%
21:00 +24°C° 0.1 mm 2 mps 757 mmHg 81%
22:00 +23°C° 0.1 mm 2 mps 757 mmHg 83%
23:00 +23°C° 0.1 mm 2 mps 757 mmHg 84%

21 June, Monday

Time Temperature Precipitation Wind Pressure Humidity
00:00 +22°C° 0.1 mm 1 mps 757 mmHg 85%
01:00 +22°C° 0 mm 1 mps 757 mmHg 84%
02:00 +22°C° 0 mm 1 mps 757 mmHg 83%
03:00 +22°C° 0 mm 1 mps 757 mmHg 82%
04:00 +22°C° 0 mm 1 mps 757 mmHg 83%
05:00 +22°C° 0 mm 1 mps 757 mmHg 83%
06:00 +23°C° 0 mm 1 mps 757 mmHg 84%
07:00 +24°C° 0.6 mm 2 mps 757 mmHg 78%
08:00 +26°C° 0.6 mm 2 mps 757 mmHg 72%
09:00 +27°C° 0.6 mm 2 mps 757 mmHg 66%
10:00 +28°C° 0.2 mm 2 mps 757 mmHg 63%
11:00 +28°C° 0.2 mm 2 mps 757 mmHg 59%
12:00 +29°C° 0.2 mm 2 mps 757 mmHg 55%
13:00 +30°C° 0 mm 2 mps 757 mmHg 54%
14:00 +30°C° 0 mm 3 mps 756 mmHg 54%
15:00 +30°C° 0 mm 3 mps 756 mmHg 53%
16:00 +29°C° 0.1 mm 3 mps 756 mmHg 59%
17:00 +28°C° 0.1 mm 3 mps 756 mmHg 65%
18:00 +27°C° 0.1 mm 3 mps 755 mmHg 71%
19:00 +26°C° 0 mm 2 mps 756 mmHg 75%
20:00 +25°C° 0 mm 2 mps 756 mmHg 79%
21:00 +23°C° 0 mm 2 mps 756 mmHg 82%
22:00 +23°C° 0 mm 2 mps 756 mmHg 84%
23:00 +21°C° 0 mm 2 mps 756 mmHg 86%

22 June, Tuesday

Time Temperature Precipitation Wind Pressure Humidity
00:00 +20°C° 0 mm 2 mps 756 mmHg 87%
01:00 +20°C° 0 mm 2 mps 756 mmHg 88%
02:00 +20°C° 0 mm 2 mps 756 mmHg 89%
03:00 +19°C° 0 mm 3 mps 756 mmHg 90%
04:00 +20°C° 0 mm 3 mps 756 mmHg 87%
05:00 +21°C° 0 mm 3 mps 756 mmHg 85%
06:00 +22°C° 0 mm 3 mps 756 mmHg 82%
07:00 +25°C° 0 mm 3 mps 756 mmHg 76%
08:00 +26°C° 0 mm 3 mps 756 mmHg 69%
09:00 +28°C° 0 mm 3 mps 756 mmHg 62%
10:00 +28°C° 0 mm 3 mps 756 mmHg 59%
11:00 +29°C° 0 mm 4 mps 756 mmHg 55%
12:00 +30°C° 0 mm 4 mps 756 mmHg 52%
13:00 +30°C° 0 mm 4 mps 755 mmHg 52%
14:00 +30°C° 0 mm 4 mps 755 mmHg 52%
15:00 +32°C° 0 mm 4 mps 755 mmHg 53%
16:00 +30°C° 0.1 mm 3 mps 755 mmHg 58%
17:00 +29°C° 0.1 mm 3 mps 755 mmHg 64%
18:00 +28°C° 0.1 mm 3 mps 755 mmHg 70%
19:00 +27°C° 0.1 mm 3 mps 755 mmHg 73%
20:00 +26°C° 0.1 mm 3 mps 755 mmHg 76%
21:00 +25°C° 0.1 mm 2 mps 755 mmHg 79%
22:00 +24°C° 0 mm 2 mps 755 mmHg 81%
23:00 +22°C° 0 mm 3 mps 755 mmHg 83%

23 June, Wednesday

Time Temperature Precipitation Wind Pressure Humidity
00:00 +22°C° 0 mm 3 mps 755 mmHg 85%
01:00 +21°C° 0 mm 2 mps 755 mmHg 86%
02:00 +21°C° 0 mm 2 mps 755 mmHg 87%
03:00 +21°C° 0 mm 2 mps 755 mmHg 87%
04:00 +21°C° 0.1 mm 2 mps 755 mmHg 86%
05:00 +23°C° 0.1 mm 1 mps 755 mmHg 84%
06:00 +24°C° 0.1 mm 1 mps 756 mmHg 83%
07:00 +25°C° 0 mm 1 mps 756 mmHg 78%
08:00 +26°C° 0 mm 2 mps 756 mmHg 73%
09:00 +28°C° 0 mm 2 mps 756 mmHg 68%
10:00 +28°C° 0.5 mm 2 mps 756 mmHg 65%
11:00 +29°C° 0.5 mm 2 mps 756 mmHg 61%
12:00 +29°C° 0.5 mm 2 mps 756 mmHg 58%
13:00 +29°C° 0 mm 2 mps 756 mmHg 58%
14:00 +29°C° 0 mm 2 mps 755 mmHg 58%
15:00 +29°C° 0 mm 3 mps 755 mmHg 58%
16:00 +29°C° 0.1 mm 2 mps 755 mmHg 62%
17:00 +28°C° 0.1 mm 2 mps 755 mmHg 66%
18:00 +27°C° 0.1 mm 1 mps 755 mmHg 70%
19:00 +26°C° 0.3 mm 1 mps 755 mmHg 76%
20:00 +24°C° 0.3 mm 1 mps 755 mmHg 82%
21:00 +21°C° 0.3 mm 2 mps 755 mmHg 87%
22:00 +20°C° 0.2 mm 2 mps 755 mmHg 88%
23:00 +20°C° 0.2 mm 2 mps 755 mmHg 89%
Show more